GW3897 Weather Reports


Display with metric or nautical units.
time (UTC)temp
F
wind
direction
speed
MPH
gust
MPH
rain 1hr
in
rain 24hr
in
rain mn
in
humidity
%
barometer
mb
20260503023105 56 192 0.0 0.0 0.00 0.00 0.00 40 1006.1
20260503021556 57 193 0.0 0.0 0.00 0.00 0.00 39 1006.1
20260503020056 58 192 0.0 0.0 0.00 0.00 0.00 37 1006.0
20260503014559 59 193 0.0 1.0 0.00 0.00 0.00 36 1005.9
20260503013054 61 193 0.0 1.0 0.00 0.00 0.00 32 1006.0
20260503011554 63 192 0.0 1.0 0.00 0.00 0.00 31 1006.1
20260503010053 62 192 0.0 5.0 0.00 0.00 0.00 31 1006.1
20260503004550 62 192 0.0 3.0 0.00 0.00 0.00 33 1006.3
20260503003051 63 193 0.0 3.0 0.00 0.00 0.00 31 1006.4
20260503001549 63 192 0.0 4.0 0.00 0.00 0.00 31 1006.6
20260503000050 63 192 0.0 2.0 0.00 0.00 0.00 31 1006.7
20260502234556 63 195 2.0 5.0 0.00 0.00 0.00 30 1006.7
20260502233048 64 297 2.0 10.0 0.00 0.00 0.00 27 1006.7
20260502231557 66 24 3.0 7.0 0.00 0.00 0.00 28 1006.8
20260502230045 65 248 2.0 6.0 0.00 0.00 0.00 29 1007.0
20260502224544 64 248 4.0 11.0 0.00 0.00 0.00 29 1007.1
20260502223042 63 245 2.0 4.0 0.00 0.00 0.00 30 1007.3
20260502221541 63 245 1.0 4.0 0.00 0.00 0.00 31 1007.7
20260502220041 62 245 1.0 4.0 0.00 0.00 0.00 32 1007.8
20260502214544 63 248 2.0 9.0 0.00 0.00 0.00 31 1008.0
20260502213037 63 242 4.0 8.0 0.00 0.00 0.00 31 1008.2
20260502211538 61 180 1.0 4.0 0.00 0.00 0.00 33 1008.4
20260502210039 62 180 1.0 7.0 0.00 0.00 0.00 34 1008.6
20260502204536 61 180 1.0 3.0 0.00 0.00 0.00 34 1008.5
20260502203035 61 246 4.0 8.0 0.00 0.00 0.00 34 1008.6
20260502201535 62 237 4.0 10.0 0.00 0.00 0.00 35 1008.7
20260502200034 60 180 5.0 9.0 0.00 0.00 0.00 37 1008.9
20260502194531 60 166 5.0 8.0 0.00 0.00 0.00 37 1009.1
20260502193031 60 180 0.0 15.0 0.00 0.00 0.00 38 1009.3
20260502191530 59 49 4.0 7.0 0.00 0.00 0.00 38 1009.6
20260502190032 59 180 0.0 5.0 0.00 0.00 0.00 36 1009.6
20260502184529 59 35 3.0 6.0 0.00 0.00 0.00 36 1009.6
20260502183029 60 180 3.0 8.0 0.00 0.00 0.00 36 1009.7
20260502181532 60 72 4.0 7.0 0.00 0.00 0.00 35 1009.7
20260502163028 59 180 4.0 8.0 0.00 0.00 0.00 40 1009.8
20260502161524 58 180 0.0 5.0 0.00 0.00 0.00 39 1009.9
20260502151519 59 180 4.0 10.0 0.00 0.00 0.00 38 1009.9
20260502140107 54 127 1.0 8.0 0.00 0.00 0.00 43 1009.7
20260502123100 47 180 3.0 7.0 0.00 0.00 0.00 51 1009.2
20260502121557 47 180 3.0 9.0 0.00 0.00 0.00 51 1009.1
20260502114553 47 180 4.0 12.0 0.00 0.00 0.00 50 1008.7
20260502113052 48 180 5.0 12.0 0.00 0.00 0.00 49 1008.7
20260502111604 49 180 6.0 13.0 0.00 0.00 0.00 47 1008.5
20260502110048 49 143 4.0 11.0 0.00 0.00 0.00 46 1008.2
20260502104545 49 180 7.0 11.0 0.00 0.00 0.00 45 1007.9
20260502103059 50 180 7.0 12.0 0.00 0.00 0.00 43 1007.8
20260502101541 51 135 6.0 13.0 0.00 0.00 0.00 42 1007.6
20260502071518 47 15 5.0 8.0 0.00 0.00 0.00 39 1006.5
20260502070022 48 180 1.0 4.0 0.00 0.00 0.00 40 1006.5
20260502064515 49 180 1.0 6.0 0.00 0.00 0.00 38 1006.4
20260502063021 51 180 4.0 6.0 0.00 0.00 0.00 36 1006.4
20260502061510 50 180 4.0 6.0 0.00 0.00 0.00 37 1006.4
20260502060008 50 180 4.0 8.0 0.00 0.00 0.00 35 1006.4
20260502054511 50 180 5.0 8.0 0.00 0.00 0.00 34 1006.4
20260502053007 50 39 4.0 7.0 0.00 0.00 0.00 32 1006.4
20260502051505 54 10 7.0 10.0 0.00 0.00 0.00 28 1006.4
20260502050008 53 180 8.0 11.0 0.00 0.00 0.00 28 1006.3
20260502044505 54 13 8.0 11.0 0.00 0.00 0.00 27 1006.3
20260502043005 52 34 7.0 10.0 0.00 0.00 0.00 27 1006.3
20260502041504 55 14 7.0 11.0 0.00 0.00 0.00 25 1006.2
20260502040008 54 17 7.0 11.0 0.00 0.00 0.00 24 1006.2
20260502034503 56 5 8.0 11.0 0.00 0.00 0.00 23 1006.1
20260502033002 56 180 8.0 10.0 0.00 0.00 0.00 22 1005.9
20260502031502 59 11 6.0 11.0 0.00 0.00 0.00 20 1005.7
20260502030002 60 180 9.0 11.0 0.00 0.00 0.00 19 1005.6
20260502024501 61 180 6.0 11.0 0.00 0.00 0.00 18 1005.5